Location: Dover
(39.1580°N, 75.5250°W)
Time: 02:29:50
(UTC-04:00)

SeaSat 1 - Visible Passes

Search period start: 27 August 2016 00:00
Search period end: 06 September 2016 00:00
Orbit: 745 x 748 km, 108.0° (Epoch: 26 August)

Date Brightness Start Highest point End Pass type
(mag) Time Alt. Az. Time Alt. Az. Time Alt. Az.
27 Aug 4.1 03:44:31 10° ESE 03:48:51 32° NE 03:53:13 10° N visible
27 Aug 3.1 05:21:55 10° S 05:26:19 32° WSW 05:30:43 10° NW visible
28 Aug 5.4 03:04:56 10° ENE 03:07:25 14° NE 03:09:54 10° NNE visible
28 Aug 2.4 04:39:21 10° SSE 04:44:16 89° WSW 04:49:15 10° NNW visible
28 Aug 5.3 20:03:33 10° N 20:06:59 19° NW 20:10:24 10° W visible
29 Aug 4.0 03:58:04 10° ESE 04:02:31 35° ENE 04:06:59 10° N visible
29 Aug 3.2 05:35:47 10° SSW 05:40:02 29° WSW 05:44:19 10° NW visible
30 Aug 5.3 03:18:16 10° E 03:21:03 15° NE 03:23:50 10° NNE visible
30 Aug 2.3 04:53:03 10° SSE 04:57:58 81° WSW 05:02:56 10° NNW visible
30 Aug 5.3 20:17:24 10° N 20:20:37 18° NW 20:23:49 10° W visible
31 Aug 3.8 04:11:38 10° SE 04:16:11 39° ENE 04:20:45 10° N visible
31 Aug 3.4 05:49:40 10° SSW 05:53:45 26° WSW 05:57:53 10° NW visible
01 Sep 5.2 03:31:37 10° E 03:34:41 17° NE 03:37:44 10° N visible
01 Sep 2.3 05:06:45 10° SSE 05:11:40 73° WSW 05:16:37 10° NNW visible
01 Sep 5.4 20:31:17 10° NNW 20:34:15 16° NW 20:37:13 10° W visible
02 Sep 3.6 04:25:13 10° SE 04:29:51 43° ENE 04:34:30 10° NNW visible
03 Sep 5.1 03:45:02 10° E 03:48:19 18° NE 03:51:37 10° N visible
03 Sep 2.4 05:20:29 10° SSE 05:25:22 65° WSW 05:30:17 10° NNW visible
03 Sep 5.5 20:45:12 10° NNW 20:47:53 15° NW 20:50:34 10° W visible
04 Sep 3.5 04:38:49 10° SE 04:43:31 47° ENE 04:48:15 10° NNW visible
04 Sep 4.4 20:01:59 10° N 20:06:25 34° NW 20:10:50 10° WSW visible
05 Sep 5.0 03:58:27 10° E 04:01:57 20° NE 04:05:27 10° N visible
05 Sep 2.5 05:34:13 10° SSE 05:39:04 59° WSW 05:43:56 10° NNW visible
05 Sep 5.5 20:59:09 10° NNW 21:01:30 14° NW 21:03:52 10° WNW visible
